Location: Glasgow, UK
(55.9025°N, 4.3076°W)
Time: 08:33:50
(UTC+01:00)

ISS - Visible Passes

Search period start: 06 July 2022 00:00
Search period end: 16 July 2022 00:00
Orbit: 414 x 420 km, 51.6° (Epoch: 06 July)

Date Brightness Start Highest point End Pass type
(mag) Time Alt. Az. Time Alt. Az. Time Alt. Az.
06 Jul -1.5 01:34:35 12° SE 01:34:35 12° SE 01:35:43 10° ESE visible
06 Jul -2.8 03:07:28 10° SW 03:10:26 30° SSE 03:13:27 10° E visible
07 Jul -2.5 02:20:37 17° SSW 02:22:21 25° SSE 02:25:10 10° ESE visible
08 Jul -2.3 01:33:39 19° S 01:34:17 20° SSE 01:36:48 10° ESE visible
08 Jul -3.2 03:07:20 10° WSW 03:10:30 38° S 03:13:39 10° ESE visible
09 Jul -1.9 00:46:35 15° SE 00:46:35 15° SE 00:48:17 10° ESE visible
09 Jul -3.1 02:19:27 11° SW 02:22:20 34° SSE 02:25:26 10° ESE visible
09 Jul -1.4 23:59:17 10° SE 23:59:17 10° SE 23:59:18 10° SE visible
10 Jul -2.9 01:32:07 16° SW 01:34:11 29° SSE 01:37:10 10° E visible
10 Jul -3.3 03:07:21 10° WSW 03:10:32 40° S 03:13:43 10° ESE visible
11 Jul -2.6 00:44:14 16° SSW 00:46:03 24° SSE 00:48:51 10° ESE visible
11 Jul -3.3 02:19:10 10° WSW 02:22:20 40° S 02:25:31 10° ESE visible
11 Jul -2.4 23:55:27 10° SSW 23:57:56 19° SSE 00:00:25 10° ESE visible
12 Jul -3.3 01:31:00 10° WSW 01:34:08 37° S 01:37:17 10° ESE visible
12 Jul -3.1 03:07:25 10° WSW 03:10:30 34° SSW 03:13:36 10° SE visible
12 Jul -2.0 23:07:52 10° S 23:09:50 15° SSE 23:11:48 10° ESE visible
13 Jul -3.1 00:42:52 10° SW 00:45:56 33° SSE 00:49:01 10° E visible
13 Jul -3.3 02:19:09 10° WSW 02:22:18 38° S 02:25:27 10° ESE visible
13 Jul -2.9 23:54:48 10° SW 23:57:44 29° SSE 00:00:42 10° E visible
14 Jul -3.4 01:30:54 10° WSW 01:34:04 40° S 01:37:15 10° ESE visible
14 Jul -2.7 03:07:33 10° WSW 03:10:23 25° SSW 03:13:11 10° SE visible
14 Jul -2.6 23:06:49 10° SSW 23:09:33 24° SSE 23:12:19 10° ESE visible
15 Jul -3.3 00:42:40 10° WSW 00:45:50 39° S 00:49:00 10° ESE visible
15 Jul -3.0 02:19:12 10° W 02:22:11 30° SSW 02:25:10 10° SE visible
15 Jul -1.8 03:56:54 10° WSW 03:58:11 12° SW 03:59:29 10° SSW visible
